Home > Weather > Jeddah > Past weeks

Flag for Saudi Arabia Weather for the Past 2 Weeks in Jeddah, Saudi Arabia

Now
66 °F

Clear.


Feels Like: 66 °F
Forecast: 67 / 79 °F
Wind: No wind

Location: Jeddah King Abdul Aziz International Airport

Current Time: Feb 10, 2016 at 6:23:47 AM

Latest Report: Feb 10, 2016 at 5:00 AM


Visibility: 10 mi

Pressure: 29.92 "Hg

Humidity: 73%

Dew point: 57 °F

Location of JeddahLocation

Historic Weather in Jeddah — Graph

°F

Jeddah Temperature Yesterday

Maximum temperature yesterday: 82 °F (at 1:00 PM)
Minimum temperature yesterday: 63 °F (at 5:00 AM)
Average temperature yesterday: 72 °F

High & Low Weather Summary for the Past Weeks

 TemperatureHumidityPressure
High95 °F (Feb 4, 2:00 PM)79% (Feb 5, 7:00 PM)30.15 "Hg (Feb 5, 7:00 PM)
Low59 °F (Jan 28, 5:00 AM)16% (Feb 4, 2:00 PM)29.86 "Hg (Feb 6, 4:00 AM)
Average73 °F50%30.01 "Hg
* Reported Jan 26 4:00 AM — Feb 10 4:00 AM, Jeddah, Weather by CustomWeather, © 2016

Note: Actual official high and low records may vary slightly from our data, if they occured in-between our weather recording intervals... More about our weather records

Advertising

Jeddah Weather History for the Previous 24 Hours

 ConditionsComfort  
Time TempWeatherWind HumidityBarometerVisibility
4:00 AM
Wed, Feb 10
68 °FClear.3 mph69%29.92 "Hg10 mi
3:00 AM68 °FClear.3 mph69%29.92 "Hg10 mi
2:00 AM68 °FClear.3 mph69%29.92 "Hg10 mi
1:00 AM70 °FClear.3 mph69%29.92 "Hg10 mi
12:00 AM72 °FClear.3 mph65%29.95 "Hg10 mi
11:00 PM
Tue, Feb 9
72 °FClear.3 mph65%29.95 "Hg10 mi
10:00 PM73 °FClear.7 mph65%29.95 "Hg10 mi
9:00 PM73 °FClear.9 mph61%29.95 "Hg10 mi
8:00 PM73 °FClear.9 mph61%29.95 "Hg10 mi
7:00 PM75 °FClear.12 mph57%29.95 "Hg10 mi
6:00 PM75 °FSunny.9 mph50%29.92 "Hg10 mi
5:00 PM77 °FSunny.14 mph51%29.92 "Hg10 mi
4:00 PM79 °FSunny.14 mph45%29.89 "Hg10 mi
3:00 PM79 °FSunny.16 mph45%29.89 "Hg10 mi
2:00 PM82 °FSunny.9 mph32%29.92 "Hg10 mi
1:00 PM82 °FSunny.12 mph30%29.95 "Hg10 mi
12:00 PM79 °FSunny.9 mph37%29.98 "Hg10 mi
11:00 AM77 °FSunny.9 mph34%30.01 "Hg10 mi
10:00 AM73 °FSunny.14 mph38%30.04 "Hg10 mi
9:00 AM72 °FSunny.14 mph41%30.04 "Hg10 mi
8:00 AM68 °FSunny.9 mph49%30.01 "Hg10 mi
7:00 AM64 °FSunny.9 mph60%30.01 "Hg10 mi
6:00 AM63 °FClear.9 mph64%30.01 "Hg10 mi
Weather by CustomWeather, © 2016

See weather overviewHow to use our weather pages